Tracking 17630 objects as of 24-May-2016
HD Live streaming from Space Station
objects crossing your sky now

CZ-3A DEB

Track CZ-3A DEB now!


NORAD ID: 35557
Int'l Code: 2007-003R
Perigee: 344.2 km
Apogee: 29,726.7 km
Inclination: 23.0 °
Period: 519.5 minutes
Semi major axis: 21406 km
RCS: 0.1574 m2 (medium)
Launch date: February 2, 2007
Source: People's Republic of China (PRC)
Launch site: Xichang Space Center, China (XSC)

Note: This is SATELLITE DEBRIS
Your satellite tracking list
Your tracking list is empty





NASA's NSSDC Master Catalog

Two Line Element Set (TLE):
1 35557U 07003R   16145.31403292  .00011153  00000-0  95582-2 0  9998
2 35557  22.9676 209.3445 6862991 188.8679 145.9671  2.77195050 68603
Source of the keplerian elements: AFSPC

N2YO: 489